Regional Weather Roundup
Issued by NWS

Home | Current Version | Previous Version | Graphics & Text | Print | Product List | Glossary On
Versions: 1 2 3 4 5 6 7 8 9 10 11 12 13 14 15 16 17 18 19 20 21 22 23 24 25 26 27 28 29 30 31 32 33 34 35 36 37 38 39 40 41 42 43 44 45 46 47 48 49 50
000
ASUS43 KLOT 020306
RWRIL

ILLINOIS REGIONAL WEATHER ROUNDUP
NATIONAL WEATHER SERVICE CHICAGO/ROMEOVILLE IL
1000 PM CDT WED OCT 01 2014

NOTE: "FAIR" INDICATES FEW OR NO CLOUDS BELOW 12,000 FEET WITH NO
SIGNIFICANT WEATHER AND/OR OBSTRUCTIONS TO VISIBILITY.

* THESE STATIONS ARE NOT UNDER NWS QUALITY CONTROL. THEY ALSO MAY NOT
  REPORT WEATHER SUCH AS PRECIPITATION OR FOG.

ILZ001-002-007-009-015-016-024-020400-
NORTHWEST ILLINOIS

CITY           SKY/WX    TMP DP  RH WIND       PRES   REMARKS
MOLINE         CLOUDY    62  59  90 CALM      29.85R
SAVANNA*       MOCLDY    64  59  84 CALM      29.85F
$$

ILZ003-004-008-010-011-017-018-020400-
NORTH CENTRAL ILLINOIS

CITY           SKY/WX    TMP DP  RH WIND       PRES   REMARKS
ROCKFORD       CLOUDY    64  55  72 SE5       29.90R
FREEPORT*      CLOUDY    63  56  78 SE8       29.89S
ROCHELLE*      MOCLDY    65  56  73 SE6       29.88S
DE KALB*       CLOUDY    64  54  70 SE10      29.90S
PERU*          CLOUDY    70  59  69 SE8       29.86S
$$

ILZ005-006-012>014-019>023-020400-
NORTHEAST ILLINOIS

CITY           SKY/WX    TMP DP  RH WIND       PRES   REMARKS
CHICAGO-OHARE  CLOUDY    65  53  65 SE10      29.91R
CHICAGO-MIDWAY CLOUDY    68  53  58 SE8       29.92R
AURORA         CLOUDY    66  54  65 SE7       29.90R
LANSING*       CLOUDY    64  51  62 SE10      29.94R
JOLIET*        CLOUDY    66  54  65 SE7       29.90S
WAUKEGAN       CLOUDY    63  53  70 SE9       29.91
DUPAGE AIRPORT MOCLDY    66  53  63 SE8       29.90R
KANKAKEE*      CLOUDY    66  56  70 SE9       29.92S
WHEELING       MOCLDY    66  53  63 SE6       29.93R
MORRIS*        CLOUDY    67  57  70 SE7       29.88S
ROMEOVILLE*    CLOUDY    67  53  59 SE20G25   29.89F
NORTHERLY ISL    N/A     64  56  75 SE7         N/A
$$

LMZ740>746-020400-
SOUTHERN LAKE MICHIGAN

STATION/POSITION SKY/WX   TEMP    WIND        PRES    VSBY  WAVE
                          AIR SEA DIR/SP/G                  HT/PER
                          (F)     (DEG/KT/KT) (MB)    (MI)  (FT/S)
SOUTHERN BUOY              63 62  130/ 14/ 17 1013.8F         2/ 3
WAUKEGAN HARBOR            62     140/  8/ 10   N/A
HARRISON CRIB              64     140/ 11/ 13   N/A
BURNHAM HARBOR             64     110/  7/ 11   N/A
CALUMET HARBOR             66                   N/A
MICHIGAN CITY              63     110/ 11/ 15   N/A
MICHIGAN CITY 6N           65 64  140/ 14/ 17   N/A           2/ 2
ST. JOSEPH                 63 63  120/ 14/ 17   N/A           1/ 2
$$

ILZ025>027-034>036-040-047-049-050-058-095>099-020400-
WEST-CENTRAL ILLINOIS

CITY           SKY/WX    TMP DP  RH WIND       PRES   REMARKS
QUINCY         CLOUDY    66  64  93 SE10      29.81F
GALESBURG*     TSTM      69  64  86 SW10      29.87R
MACOMB*        CLOUDY    66  65  95 NW5       29.85R
JACKSONVILLE*  LGT RAIN  69  67  94 SE8       29.88S
PITTSFIELD*    CLOUDY    67  64  93 SE7       29.84F
$$

ILZ028>032-037-038-041>044-048-051>054-059>061-020400-
CENTRAL ILLINOIS

CITY           SKY/WX    TMP DP  RH WIND       PRES   REMARKS
PONTIAC        CLOUDY    72  61  68 SE9       29.88F
BLOOMINGTON    LGT RAIN N/A  65   0 S5          N/A
DECATUR        CLOUDY    71  60  68 S6        29.90S
PEORIA         CLOUDY    71  64  78 S12       29.84F
LACON*         DRIZZLE   69  63  82 S14G22    29.82F
LINCOLN*       LGT RAIN  68  66  95 S3        29.85F
SPRINGFIELD    RAIN      68  67  96 S8        29.88F FOG
TAYLORVILLE    RAIN      68  64  88 W15G32    29.92R
$$

ILZ033-039-045-046-055>057-062-063-020400-
EAST-CENTRAL ILLINOIS

CITY           SKY/WX    TMP DP  RH WIND       PRES   REMARKS
DANVILLE*      MOCLDY    67  60  79 SE7       29.90S
RANTOUL*       CLOUDY    71  60  67 SE8       29.93R
MATTOON        CLOUDY    69  57  65 SE6       29.90F
PARIS*         CLOUDY    68  62  82 SE5       29.94S
$$

ILZ079-100>102-020400-
SOUTHWEST ILLINOIS

CITY           SKY/WX    TMP DP  RH WIND       PRES   REMARKS
ALTON          MOCLDY    75  61  60 SE7       29.85S
BELLEVILLE     CLOUDY    75  65  70 E6        29.86R
CAHOKIA*       CLOUDY    78  64  61 S6        29.85R HX  80
SPARTA*        CLOUDY    75  63  66 SE5       29.89R
$$

ILZ064>066-069>071-074>076-080>082-084>086-088>090-092>094-020400-
SOUTH-CENTRAL ILLINOIS

CITY           SKY/WX    TMP DP  RH WIND       PRES   REMARKS
CARBONDALE     CLOUDY    72  62  71 SE7       29.89S
CAIRO*         PTCLDY    73  64  71 S5        29.90S
EFFINGHAM*     CLOUDY    71  56  60 CALM      29.91S
MARION         MOCLDY    72  63  73 S5        29.91S
CENTRALIA*     CLOUDY    74  60  62 S7        29.90S
SALEM*         CLOUDY    74  64  71 SE5       29.90S
METROPOLIS*    PTCLDY    73  62  68 S3        29.90F
$$

ILZ067-068-072-073-078-083-087-091-020400-
SOUTHEAST ILLINOIS

CITY           SKY/WX    TMP DP  RH WIND       PRES   REMARKS
LAWRENCEVILLE  PTCLDY    68  58  70 CALM      29.93R
FLORA*         PTCLDY    68  59  73 SE7       29.91S
FAIRFIELD*     PTCLDY    66  63  88 CALM      29.91S
HARRISBURG*    PTCLDY    69  61  76 CALM      29.92S
ROBINSON*      MOCLDY    68  59  73 CALM      29.94R
CARMI*         CLEAR     64  61  88 SE7       29.92R
$$

ABBREVIATIONS USED IN REMARKS
   TC - TEMPERATURE IN CELSIUS
  WCI - WIND CHILL INDEX
   HX - HEAT INDEX
  VSB - VISIBILITY
$$




USA.gov is the U.S. government's official web portal to all federal, state and local government web resources and services.